Date,TemperatureHighF,TemperatureAvgF,TemperatureLowF,DewpointHighF,DewpointAvgF,DewpointLowF,HumidityHigh,HumidityAvg,HumidityLow,PressureMaxIn,PressureMinIn,WindSpeedMaxMPH,WindSpeedAvgMPH,GustSpeedMaxMPH,PrecipitationSumIn
2014-1-1,53.7,35.0,22.9,28.6,23.0,17.6,84,64,33,30.39,30.10,12,2,15,0.00
2014-1-2,32.4,29.3,25.9,28.2,26.0,23.3,96,87,73,30.10,29.64,4,0,7,0.00
2014-1-3,29.0,16.7,7.4,27.4,5.3,1.3,95,61,42,30.48,29.67,14,4,21,0.00
2014-1-4,36.8,20.0,6.6,18.9,9.7,2.3,83,66,38,30.49,30.27,6,1,9,0.04
2014-1-5,52.6,34.0,23.6,46.8,30.5,15.9,98,87,65,30.27,29.64,13,1,19,0.46
2014-1-6,57.6,33.1,4.4,50.3,20.6,-10.9,89,60,41,30.09,29.45,24,9,32,0.05
2014-1-7,19.1,8.0,0.2,1.3,-7.5,-14.3,74,50,31,30.47,30.09,13,4,21,0.00
2014-1-8,33.0,18.8,6.8,18.8,7.6,0.7,79,63,39,30.60,30.45,7,1,11,0.00
2014-1-9,38.7,27.4,18.1,24.4,18.6,14.4,86,70,49,30.63,30.48,3,0,5,0.00
2014-1-10,40.3,35.3,31.1,38.5,32.6,23.5,97,90,70,30.50,30.11,3,0,4,0.30
2014-1-11,62.3,48.3,35.4,57.0,44.2,34.6,99,87,56,30.10,29.39,17,4,35,0.36
2014-1-12,50.4,42.3,32.2,36.3,29.8,26.1,81,62,45,30.08,29.59,15,4,24,0.00
2014-1-13,60.5,43.8,30.6,36.7,31.6,25.9,84,65,36,30.08,29.83,15,2,17,0.00
2014-1-14,51.7,44.6,30.2,46.2,39.6,27.6,95,83,61,29.90,29.67,10,2,17,0.14
2014-1-15,51.3,34.9,27.8,38.6,31.2,25.5,96,87,54,29.98,29.83,8,1,16,0.03
2014-1-16,37.9,29.0,21.5,30.1,23.7,19.3,96,81,50,30.02,29.88,6,1,12,0.09
2014-1-17,48.2,35.9,24.5,30.6,24.7,19.2,86,65,39,29.94,29.81,13,3,19,0.01
2014-1-18,34.6,23.7,16.6,30.8,14.2,8.8,94,67,49,29.98,29.84,15,3,17,0.00
2014-1-19,43.6,33.6,20.5,27.8,21.9,15.1,84,63,47,29.94,29.75,15,4,23,0.02
2014-1-20,55.2,41.8,30.4,29.5,24.7,18.8,81,52,32,29.86,29.64,15,4,20,0.00
2014-1-21,34.3,25.2,15.4,28.8,22.4,10.9,95,89,78,29.91,29.69,14,4,18,0.00
2014-1-22,18.5,10.6,-0.5,10.5,-1.5,-8.0,81,59,35,30.10,29.91,7,2,13,0.00
2014-1-23,21.0,10.0,-0.8,10.8,-0.6,-5.2,84,63,41,30.50,30.10,12,3,19,0.00
2014-1-24,21.9,12.5,1.3,-0.9,-4.3,-8.0,72,48,33,30.58,30.05,10,4,18,0.00
2014-1-25,33.5,28.7,22.3,24.4,8.5,-3.2,92,45,25,30.04,29.45,21,7,27,0.00
2014-1-26,36.7,23.4,10.1,15.7,6.8,-0.3,65,49,28,29.88,29.71,13,2,23,0.00
2014-1-27,51.4,36.5,16.4,34.8,19.4,-0.4,62,50,34,30.17,29.65,13,5,24,0.00
2014-1-28,16.6,12.4,8.2,5.9,-4.9,-12.7,83,46,33,30.40,30.17,9,3,16,0.00
2014-1-29,25.1,13.2,3.6,6.2,1.1,-5.8,88,62,29,30.37,30.23,9,2,14,0.00
2014-1-30,34.4,17.5,2.8,11.3,4.5,-1.4,84,60,28,30.46,30.18,6,1,10,0.00
2014-1-31,50.1,33.8,22.4,21.0,15.6,9.1,74,50,23,30.21,30.10,4,1,8,0.00